This demonstration page uses our WeatherBlox Daily Observations layout. Learn more.

38.89511, -77.03637

Hourly Observations for September 4, 2019

Temp ( °F °C ) Dew Point ( °F °C ) Humidity (%) Winds ( mph kmh ) Pressure ( in mb ) Visibility ( mi km ) Precip ( " mm )
12:52 am 00:52 Partly Cloudy 75 23.9 69 20.6 82 82 S 9 15 30 1016 10 16.09344 0 0
1:52 am 01:52 Partly Cloudy 74 23.3 69 20.6 85 85 SSW 9 15 29.97 1015 10 16.09344 0 0
2:52 am 02:52 Mostly Cloudy 74 23.3 68 20 82 82 SSW 9 15 29.97 1015 10 16.09344 0 0
3:52 am 03:52 Mostly Cloudy 73 22.8 68 20 84 84 S 7 11 29.97 1015 10 16.09344 0 0
4:52 am 04:52 Mostly Cloudy 72 22.2 68 20 87 87 SSW 6 9 29.97 1015 10 16.09344 0 0
5:46 am 05:46 Cloudy 73 23 70 21 89 89 S 8 13 30 1016 10 16.09344 0 0
5:52 am 05:52 Cloudy 73 22.8 69 20.6 87 87 S 8 13 30 1016 10 16.09344 0 0
6:29 am 06:29 Cloudy 73 22.8 69 20.6 87 87 S 7 11 30 1016 10 16.09344 0 0
6:52 am 06:52 Cloudy 73 22.8 70 21.1 90 90 SSW 7 11 30 1016 10 16.09344 0 0
7:52 am 07:52 Mostly Cloudy 74 23.3 70 21.1 88 88 SSW 10 17 30 1016 10 16.09344 0 0
7:56 am 07:56 Partly Cloudy 74 23.3 70 21.1 88 88 SW 10 17 30 1016 10 16.09344 0 0
8:52 am 08:52 Mostly Sunny 77 25 70 21.1 79 79 SSW 14 22 29.97 1015 10 16.09344 0 0
9:52 am 09:52 Mostly Sunny 81 27.2 70 21.1 69 69 S 9 15 29.97 1015 10 16.09344 0 0
10:52 am 10:52 Mostly Sunny 84 28.9 71 21.7 65 65 SSW 10 17 29.97 1015 10 16.09344 0 0
11:52 am 11:52 Mostly Sunny 86 30 73 22.8 65 65 S 14 22 29.94 1014 10 16.09344 0 0
12:52 pm 12:52 Mostly Sunny 90 32.2 71 21.7 54 54 S 14 22 29.91 1013 10 16.09344 0 0
1:52 pm 13:52 Mostly Sunny 93 33.9 71 21.7 49 49 SSW 14 22 29.91 1013 10 16.09344 0 0
2:52 pm 14:52 Mostly Sunny 94 34.4 69 20.6 44 44 S 9 15 29.88 1012 10 16.09344 0 0
4:52 pm 16:52 Mostly Cloudy 91 32.8 71 21.7 52 52 S 12 19 29.85 1011 10 16.09344 0 0
5:52 pm 17:52 Mostly Cloudy 92 33.3 68 20 46 46 SSW 12 19 29.88 1012 10 16.09344 0 0
6:52 pm 18:52 Mostly Cloudy 90 32.2 70 21.1 52 52 S 12 19 29.88 1012 10 16.09344 0 0
7:52 pm 19:52 Mostly Cloudy 87 30.6 71 21.7 59 59 S 10 17 29.88 1012 10 16.09344 0 0
8:52 pm 20:52 Partly Cloudy 85 29.4 73 22.8 68 68 S 9 15 29.88 1012 10 16.09344 0 0
9:52 pm 21:52 Cloudy 85 29.4 72 22.2 65 65 Calm 29.91 1013 10 16.09344 0.001 0.001
10:05 pm 22:05 Cloudy with Light Thunderstorms 83 28.3 73 22.8 72 72 N 9 15 29.94 1014 10 16.09344 0.01 0.254
10:24 pm 22:24 Cloudy with Thunderstorms 81 27.2 75 23.9 82 82 ENE 9 15 29.94 1014 10 16.09344 0.02 0.508
10:45 pm 22:45 Cloudy 80 26.7 75 23.9 85 85 Calm 29.94 1014 10 16.09344 0.02 0.508
10:52 pm 22:52 Cloudy 80 26.7 75 23.9 85 85 ESE 3 6 29.94 1014 10 16.09344 0.02 0.508
11:52 pm 23:52 Cloudy 79 26.1 73 22.8 82 82 Calm 29.94 1014 10 16.09344 0 0

Powered by AerisWeather